Flag for Greece Weather past 2 weeks in Glyfada, Greece

Now
75 °F

Clear.


Feels Like: 77 °F
Forecast: 68 / 77 °F
Wind: 8 mph from South

Location: Eleftherios Venizelos International Airport

Current Time: Sep 23, 2014 at 7:45:06 AM

Latest Report: Sep 23, 2014 at 6:50 AM


Visibility: 10 mi

Pressure: 29.77 "Hg

Humidity: 65%

Dew point: 63 °F

Location of GlyfadaLocation

Historic Weather in Glyfada — Graph

°F

Glyfada temperature yesterday

Maximum temperature yesterday: 90 °F (at 12:50 PM)
Minimum temperature yesterday: 72 °F (at 7:20 AM)
Average temperature yesterday: 81 °F

Past Weeks' High & Low Weather Summary

 TemperatureHumidityPressure
High90 °F (Sep 22, 12:50 PM)94% (Sep 9, 2:50 AM)30.21 "Hg (Sep 9, 2:50 AM)
Low57 °F (Sep 20, 5:50 AM)27% (Sep 11, 3:50 PM)29.77 "Hg (Sep 22, 5:50 PM)
Average74 °F63%29.96 "Hg
* Reported Sep 8 6:20 AM — Sep 23 6:20 AM, Glyfada, Weather by CustomWeather, © 2014

Note: Actual official high and low records may vary slightly from our data, if they occured in-between our weather recording intervals... More about our weather records

Advertising

Glyfada weather history for previous 24 hours

 ConditionsComfort  
Time TempWeatherWind HumidityBarometerVisibility
6:20 AM
Sep 23
75 °FClear.5 mph65%29.77 "Hg10 mi
5:50 AM75 °FClear.3 mph65%29.77 "Hg10 mi
5:20 AM77 °FClear.2 mph61%29.77 "Hg10 mi
4:50 AM77 °FClear.1 mph61%29.80 "Hg10 mi
4:20 AM77 °FClear.2 mph65%29.80 "Hg10 mi
3:50 AM77 °FPassing clouds.6 mph69%29.80 "HgN/A
3:20 AM77 °FClear.6 mph65%29.80 "Hg10 mi
2:50 AM79 °FClear.7 mph58%29.80 "Hg10 mi
2:20 AM81 °FClear.7 mph51%29.80 "Hg10 mi
1:50 AM81 °FClear.8 mph51%29.80 "Hg10 mi
1:20 AM81 °FPassing clouds.5 mph51%29.80 "HgN/A
12:50 AM82 °FClear.13 mph45%29.80 "Hg10 mi
12:20 AM81 °FClear.12 mph51%29.80 "Hg10 mi
11:50 PM
Sep 22
84 °FPassing clouds.16 mph40%29.80 "HgN/A
11:20 PM84 °FClear.16 mph40%29.80 "Hg10 mi
10:50 PM82 °FPassing clouds.15 mph42%29.80 "HgN/A
10:20 PM84 °FPassing clouds.13 mph40%29.80 "HgN/A
9:50 PM84 °FPassing clouds.17 mph40%29.80 "HgN/A
9:20 PM82 °FPassing clouds.10 mph42%29.80 "HgN/A
8:50 PM79 °FPassing clouds.12 mph58%29.80 "HgN/A
8:20 PM79 °FPassing clouds.12 mph65%29.80 "HgN/A
7:50 PM79 °FPassing clouds.13 mph61%29.80 "HgN/A
7:20 PM81 °FSunny.10 mph58%29.77 "Hg10 mi
6:50 PM82 °FSunny.14 mph48%29.77 "Hg10 mi
6:20 PM84 °FSunny.14 mph45%29.77 "Hg10 mi
5:50 PM86 °FSunny.14 mph43%29.77 "Hg10 mi
5:20 PM88 °FSunny.13 mph40%29.80 "Hg10 mi
4:50 PM88 °FSunny.14 mph40%29.80 "Hg10 mi
4:20 PM90 °FPassing clouds.16 mph38%29.80 "HgN/A
3:50 PM88 °FPassing clouds.13 mph46%29.80 "HgN/A
3:20 PM90 °FScattered clouds.15 mph38%29.80 "HgN/A
2:50 PM90 °FScattered clouds.15 mph38%29.80 "HgN/A
2:20 PM90 °FScattered clouds.15 mph38%29.83 "HgN/A
1:50 PM88 °FScattered clouds.15 mph43%29.83 "HgN/A
1:20 PM90 °FScattered clouds.14 mph36%29.86 "HgN/A
12:50 PM90 °FPartly sunny.7 mph36%29.86 "HgN/A
12:20 PM88 °FPassing clouds.5 mph38%29.86 "HgN/A
11:50 AM88 °FPassing clouds.3 mph38%29.86 "HgN/A
11:20 AM86 °FScattered clouds.3 mph46%29.89 "HgN/A
10:50 AM82 °FScattered clouds.2 mph55%29.89 "HgN/A
10:20 AM82 °FSunny.1 mph51%29.89 "Hg10 mi
9:50 AM81 °FSunny.3 mph62%29.89 "Hg10 mi
9:20 AM77 °FSunny.2 mph65%29.89 "Hg10 mi
8:50 AM77 °FSunny.3 mph65%29.89 "Hg10 mi
8:20 AM75 °FSunny.2 mph74%29.89 "Hg10 mi
7:50 AM72 °FClear.No wind73%29.89 "Hg10 mi
7:20 AM72 °FClear.2 mph73%29.89 "Hg10 mi
Weather by CustomWeather, © 2014

See weather overviewHow to use our weather pages